SWIFT (28485 NORAD) Tracking and Keplerian Element Data

This shows tracking and keplerian element data for the satellite.

Feedback or suggestion? Click here.




ElementValue
Catalog28485
NameSWIFT
Epoch Orbit15884
Epoch Day354.00783385
Epoch Year2025
RAAN109.8911
Inclination20.5533
Eccentricity0.0004195
Argument of Perigee19.8907
Mean Anonmoly340.1699
Mean Motion15.51035277
Decay Rate0.00027893
L11 28485U 04047A 25354.00783385 .00027893 00000+0 44753-3 0 9999
L22 28485 20.5533 109.8911 0004195 19.8907 340.1699 15.51035277158843



Live tracking and technical data element details for SWIFT (NORAD 28485). SWIFT can be tracked NOW for your location showing map with azimuth and elevation plus other details from your city location.







IsCatalogInMostPopularTable: catalog: 28485, numindb: 463
Update: records affected: 1



GetName: 28485 SWIFT

Hit Count: updated at: Thu, 16 Apr 2026 06:54:39 GMT